OBJECT F, 60750

Orbit data source: Space-Track

You're viewing an Uncataloged Satellite

Recently launched and/or uncataloged satellites may have evolving metadata. Metadata may include but not limited to: Owner, Maufacturer, Bus, Motor, and Mission.

OBJECT F, 60750 is a satellite owned by Xiamen Tianwei (CN) in SSO that was launched on Thu, 29 Aug 2024 UTC via a GUSHENXING 1 launch vehicle from the Yellow Sea Launch Area, China (YSLA). Unknown objects in Earth's orbit typically refer to objects detected orbiting the Earth but have not yet been identified or cataloged. These objects could be anything from previously untracked satellites, spent rocket stages, debris from satellite collisions, or even natural meteoroids temporarily captured by Earth's gravity.

Loading next visibility...
Identifier
60750, 2024-153F
Orbit
SSO
Last TLE update
6 hours ago
Origin
Flag of CNXIAMT (CN / PRC)
Manufacturer
Hangsheng
Mission
Operational Commercial Imaging
Bus & Motor
TFG, Unknown motor
Mass
~50 kg wet, ~50 kg dry
Launch date (UTC)
2024-08-29 (10 months ago)
Launch vehicle
GUSHENXING 1
Launch site
Yellow Sea Launch Area, China (YSLA)
Object type
Unknown
Shape & HBR
Box + 1 Pan, 5 m
Radar Cross Section
5.339 m², Medium (>0.1 m² and < 1m²)

Expand to show TLE details & history

TLE from 6 hours ago
0 OBJECT F
1 60750U 24153F   25182.16949645  .00012793  00000-0  51494-3 0  9993
2 60750  97.6355 307.9249 0013035 318.9051  41.1203 15.24945576 46423
Epoch: 2025-07-01T04:04Z
TLE epoch observation values (Epoch: 2025-07-01T04:04:04.493Z)
Latitude
-0.00004°
Longitude
-32.56262°
Altitude
487.298 km
Speed
7.625 km/s
True Right ascension
20h 31m 41s
True Declination
0° 00' 00"
Sunlit
Object was in full shadow at epoch
Visualization orbit readout
Latitude
-5.79192°
Longitude
146.89775°
Altitude
500.99 km
Speed
7.61 km/s
Apparent Right ascension
08h 48m 19s
Apparent Declination
-22° 09' 45"
Sunlit
Object is in daylight
Visualization observer readout
Local Sidereal Time
21:14:36
Azimuth
19.395° NNE
Elevation
-71.39°
Doppler factor
1
Orbital elements
Apogee altitude
496.868 km
Perigee altitude
478.968 km
Semi-major axis
6,866.055 km
Eccentricity
0.0013
Inclination
97.6355°
RAAN
307.9249°
Arg. of periapsis
318.9051°
True anomaly
Unknown
Mean anomaly
41.1203°
Eccentric anomaly
Unknown
Mean motion
3.81489 °/min
Orbital period
94.37 mins
BSTAR
0.00051494
Loading maneuver chart data...
Loading SW <> Apogee altitude chart data...
Loading historical data...
Loading historical data...
Loading historical data...
Loading historical data...
Loading historical data...
Loading historical data...
Loading historical data...

OBJECT F Visibility forecast

Observer location: undefined°, undefined°

Span
Click to sort rows by Start time (UTC) header in descending order
Start Az.
Max El. time (UTC)
Max El. Az.
Max El.
End time (UTC)
End Az.
4 mins2025-07-01 20:24:18.177Z61.288° ENE2025-07-01 20:26:18.177Z100.194° ESE16.659°2025-07-01 20:28:18.177Z135.071° SSE
4 mins2025-07-01 21:58:18.177Z322.444° NNW2025-07-01 21:59:18.177Z296.819° NW24.008°2025-07-01 22:02:18.177Z234.081° WSW
5 mins2025-07-02 08:33:18.177Z176.9° S2025-07-02 08:35:18.177Z250.158° W43.698°2025-07-02 08:38:18.177Z342.579° N
|